sat.trackr.live / text

‹ back to catalog

STARLINK-31399

NORAD 59416 · 2024-064U

PAYLOAD ACTIVE UNKNOWN

§ Identity

Operator
Country
US
Launch date
2024-04-05
Launch site
AFETR
Launch vehicle
Mass (kg)
RCS (m²)

Purposes: comms

External: N2YO · Heavens-Above · Gunter

§ Orbital elements

Epoch: 2026-09-21T16:35:34.012896Z

Period
94.27 min
Inclination
43.0019°
Eccentricity
0.0001334
Mean motion
15.27580274 rev/d
Perigee alt
482.1 km
Apogee alt
484.0 km
Semi-major
6,861.2 km
B*
2.6121e-5
RAAN
29.0817°
Arg perigee
258.6531°
Mean anomaly
101.4171°
Rev number
13,920

§ Raw data

STARLINK-313991 59416U 24064U   26264.69136589  .00000457  00000+0  26121-4 0  99992 59416  43.0019  29.0817 0001334 258.6531 101.4171 15.27580274139203

JSON: /api/v1/satellites/59416 · /tle

For live sub-satellite position, see the globe view (requires WebGL).

§ Visibility from observer

Set your observer location to see the next 7 days of passes ≥ 10°. The values pass through the URL so the page stays shareable.

No JS? Fill the form by hand. The geolocation button needs JavaScript.